Missoula, MT

10:19 AM MDT on March 25, 2017 (GMT -0600)
Missoula International

Weather History for KMSO - October, 2013

Change the Weather History Date:

Sunday, October 27, 2013

  Actual Average Record
Temperature  
Mean Temperature 37 °F 41 °F  
Max Temperature 53 °F 52 °F 73 °F (1937)
Min Temperature 21 °F 30 °F 13 °F (1919)
Degree Days  
Heating Degree Days 28 24  
Month to date heating degree days 591 517  
Since 1 July heating degree days 792 842  
Cooling Degree Days 0 0  
Month to date cooling degree days 0 0  
Year to date cooling degree days 579 332  
Moisture  
Dew Point 27 °F    
Average Humidity 66    
Maximum Humidity 92    
Minimum Humidity 40    
Precipitation  
Precipitation 0.00 in 0.03 in 0.46 in (1926)
Month to date precipitation 0.04 0.76  
Year to date precipitation 7.77 11.96  
Snow  
Snow 0.00 in - - ()
Month to date snowfall 0.0  
Year to date snowfall 27.4  
Since 1 July snowfall T  
Snow Depth 0.00 in    
Sea Level Pressure  
Sea Level Pressure 29.98 in    
Wind  
Wind Speed 7 mph (NE)    
Max Wind Speed 24 mph    
Max Gust Speed 32 mph    
Visibility 10 miles    
Events      
T = Trace of Precipitation, MM = Missing Value Source: NWS Daily Summary

Daily Weather History Graph

Daily Weather History Graph

Search for Another Location

Airport or City:

Trip Planner

Search our weather history database for the weather conditions in past years. The results will help you decide how hot, cold, wet, or windy it might be!

Date:

Astronomy

Oct. 27, 2013 Rise Set
Actual Time 8:12 AM MDT 6:27 PM MDT
Civil Twilight 7:40 AM MDT 6:59 PM MDT
Nautical Twilight 7:04 AM MDT 7:34 PM MDT
Astronomical Twilight 6:29 AM MDT 8:09 PM MDT
Moon 12:48 AM MDT (10/27) 3:02 PM MDT (10/27)
Length of Visible Light 11h 18m
Length of Day
10h 15m
Last Quarter, 43% of the Moon is Illuminated
Oct 27
Last Quarter
Nov 3
New
Nov 9
First Quarter
Nov 17
Full
Nov 25
Last Quarter

Hourly Weather History & Observations

Time (MDT) Temp. Windchill Dew Point Humidity Pressure Visibility Wind Dir Wind Speed Gust Speed Precip Events Conditions
12:53 AM 33.1 °F - 27.0 °F 78% 30.15 in 10.0 mi Calm Calm - N/A   Clear
1:53 AM 30.0 °F - 26.1 °F 85% 30.12 in 10.0 mi Calm Calm - N/A   Clear
2:53 AM 30.0 °F - 26.1 °F 85% 30.08 in 10.0 mi Calm Calm - N/A   Clear
3:53 AM 27.0 °F - 25.0 °F 92% 30.06 in 10.0 mi Calm Calm - N/A   Clear
4:53 AM 27.0 °F - 25.0 °F 92% 30.02 in 10.0 mi Calm Calm - N/A   Clear
5:53 AM 26.1 °F - 23.0 °F 88% 30.00 in 10.0 mi Calm Calm - N/A   Clear
6:53 AM 26.1 °F - 23.0 °F 88% 29.99 in 10.0 mi Calm Calm - N/A   Clear
7:53 AM 21.0 °F - 18.0 °F 88% 29.99 in 10.0 mi Calm Calm - N/A   Clear
8:53 AM 26.1 °F - 21.9 °F 84% 29.98 in 10.0 mi Calm Calm - N/A   Clear
9:53 AM 30.9 °F - 28.0 °F 89% 29.96 in 10.0 mi Calm Calm - N/A   Clear
10:53 AM 37.0 °F - 30.9 °F 79% 29.93 in 10.0 mi Calm Calm - N/A   Clear
11:53 AM 41.0 °F - 30.9 °F 67% 29.91 in 10.0 mi Calm Calm - N/A   Clear
12:53 PM 46.0 °F 42.5 °F 30.9 °F 56% 29.88 in 10.0 mi WNW 6.9 mph - N/A   Scattered Clouds
1:53 PM 48.0 °F - 30.9 °F 52% 29.85 in 10.0 mi WNW 5.8 mph - N/A   Partly Cloudy
2:53 PM 53.1 °F - 30.9 °F 43% 29.81 in 10.0 mi NNW 9.2 mph - N/A   Scattered Clouds
3:53 PM 51.1 °F - 32.0 °F 48% 29.81 in 10.0 mi NNE 16.1 mph 20.7 mph N/A   Scattered Clouds
4:53 PM 48.0 °F - 33.1 °F 56% 29.85 in 10.0 mi North 18.4 mph 24.2 mph N/A   Overcast
5:53 PM 45.0 °F 37.4 °F 34.0 °F 65% 29.88 in 10.0 mi NNE 18.4 mph 29.9 mph N/A   Overcast
6:53 PM 48.0 °F - 32.0 °F 54% 29.94 in 10.0 mi ENE 10.4 mph 24.2 mph N/A   Overcast
7:53 PM 48.0 °F - 28.0 °F 46% 30.01 in 10.0 mi East 16.1 mph 29.9 mph N/A   Overcast
8:53 PM 44.1 °F 36.2 °F 30.9 °F 60% 30.06 in 10.0 mi East 18.4 mph 26.5 mph N/A   Overcast
9:53 PM 43.0 °F 37.2 °F 26.1 °F 51% 30.09 in 10.0 mi East 10.4 mph - N/A   Overcast
10:53 PM 41.0 °F 37.1 °F 23.0 °F 49% 30.12 in 10.0 mi ESE 5.8 mph - N/A   Overcast
11:53 PM 39.9 °F 32.1 °F 17.1 °F 40% 30.14 in 10.0 mi ESE 13.8 mph - N/A   Overcast